Hourly Data Report for October 14, 2016

All times are specified in Local Standard Time (LST). Add 1 hour to adjust for Daylight Saving Time where and when it is observed.

PANGNIRTUNG
NUNAVUT

66°08'36.300" N
65°42'40.500" W
22.60 m
2403049
71826
WXP

Download Data

Hourly Data (October 2016)
Hourly Data Report for October 14, 2016
Temp Definition
°C
Dew Point Temp Definition
°C
Rel Hum Definition
%
Wind Dir Definition
10's deg

Wind Spd Definition
km/h
Visibility Definition
km
Stn Press Definition
kPa
Hmdx Definition


Wind Chill Definition


Weather Definition


TIME
00:00 -2.1 -7.1 68 11 4   100.27   -4 LegendNANA
01:00 -2.6 -7.0 72 11 8   100.28   -6 LegendNANA
02:00 -3.0 -7.2 73 11 14   100.30   -8 LegendNANA
03:00 -2.8 -7.1 72 9 9   100.33   -6 LegendNANA
04:00 -3.4 -8.0 71 11 10   100.35   -7 LegendNANA
05:00 -2.9 -7.9 68 13 9   100.35   -6 LegendNANA
06:00 -3.0 -8.7 65 13 7   100.35   -6 LegendNANA
07:00 -2.4 -8.5 63 12 14   100.38   -7 LegendNANA
08:00 -3.0 -8.2 68 9 13   100.41   -8 LegendNANA
09:00 -2.0 -8.4 62 10 9   100.38   -5 LegendNANA
10:00 -2.3 -8.5 62 12 9   100.37   -6 LegendNANA
11:00 -1.3 -8.2 59 5 10   100.35   -5 LegendNANA
12:00 -1.6 -7.4 64 12 7   100.36   -4 LegendNANA
13:00 -1.4 -8.1 60 3 7   100.36   -4 LegendNANA
14:00 -1.2 -7.4 63 4 8   100.35   -4 LegendNANA
15:00 -1.8 -5.9 74 12 17   100.33   -7 LegendNANA
16:00 -1.4 -7.0 65 15 20   100.31   -7 LegendNANA
17:00 -1.8 -7.4 65 12 6   100.29   -4 LegendNANA
18:00 -2.3 -7.1 70 11 4   100.24   -4 LegendNANA
19:00 -1.9 -7.8 64 11 3   100.21   -3 LegendNANA
20:00 -2.2 -7.6 67 13 4   100.18   -4 LegendNANA
21:00 -2.5 -7.3 69 12 7   100.14   -5 LegendNANA
22:00 -2.2 -8.2 64 13 4   100.10   -4 LegendNANA
23:00 -3.1 -7.8 70 15 3   100.09   -4 LegendNANA

Notes on Data Quality.

Legend

  • E = Estimated
  • M = Missing
  • NA = Not Available
  • ‡ = Partner data that is not subject to review by the National Climate Archives
Date modified: